Location: Saint-Palais-sur-Mer
(45.6429°N, 1.0859°W)
Time: 01:14:52
(UTC+02:00)

CAS-6 - Visible Passes

Search period start: 19 April 2024 00:00
Search period end: 29 April 2024 00:00
Orbit: 608 x 629 km, 97.8° (Epoch: 18 April)

Date Brightness Start Highest point End Pass type
(mag) Time Alt. Az. Time Alt. Az. Time Alt. Az.
19 Apr ? 01:17:08 18° WNW 01:17:08 18° WNW 01:18:56 10° NW visible
19 Apr ? 23:56:51 50° NNE 23:56:51 50° NNE 00:00:18 10° N visible
20 Apr ? 01:33:58 12° WNW 01:33:58 12° WNW 01:34:53 10° WNW visible
20 Apr ? 22:36:33 10° ENE 22:37:21 11° ENE 22:38:27 10° NE visible
21 Apr ? 00:13:40 55° NNW 00:13:40 55° NNW 00:17:05 10° NNW visible
21 Apr ? 22:53:22 15° ENE 22:53:51 15° ENE 22:56:23 10° NNE visible
22 Apr ? 00:30:29 46° NW 00:30:29 46° NW 00:33:46 10° NNW visible
22 Apr ? 23:10:11 22° ENE 23:10:24 22° ENE 23:13:41 10° NNE visible
23 Apr ? 00:47:18 34° WNW 00:47:18 34° WNW 00:50:20 10° NNW visible
23 Apr ? 23:26:59 30° ENE 23:26:59 30° ENE 23:30:46 10° N visible
24 Apr ? 01:04:06 25° WNW 01:04:06 25° WNW 01:06:45 10° NW visible
24 Apr ? 23:43:47 44° ENE 23:43:47 44° ENE 23:47:41 10° N visible
25 Apr ? 01:20:55 18° WNW 01:20:55 18° WNW 01:22:58 10° NW visible
26 Apr ? 00:00:35 62° NE 00:00:35 62° NE 00:04:30 10° N visible
26 Apr ? 01:37:42 12° WNW 01:37:42 12° WNW 01:38:42 10° WNW visible
26 Apr ? 22:40:16 11° ENE 22:41:27 12° ENE 22:43:02 10° NE visible
27 Apr ? 00:17:23 69° NNW 00:17:23 69° NNW 00:21:13 10° NNW visible
27 Apr ? 22:57:03 16° ENE 22:57:56 17° ENE 23:00:40 10° NNE visible
28 Apr ? 00:34:10 50° WNW 00:34:10 50° WNW 00:37:50 10° NNW visible
28 Apr ? 23:13:50 23° ENE 23:14:27 23° ENE 23:17:52 10° NNE visible
